Location: Binningen
(47.7924°N, 8.7261°E)
Time: 18:38:27
(UTC+00:00)

Cosmos 1666 Rocket - Pass Details

Date: 17 May 2021
Orbit: 603 x 634 km, 82.5° (Epoch: 20 June)

Event Time Altitude Azimuth Distance (km) Brightness Sun altitude
Rises 19:28:27 0° 347° (NNW) 2,897 7.9 -4.9°
Reaches altitude 10° 19:30:43 10° 343° (NNW) 1,982 7.1 -5.2°
Maximum altitude 19:35:01 58° 265° (W) 717 4.2 -5.8°
Drops below altitude 10° 19:39:15 10° 187° (S) 1,950 5.8 -6.3°
Sets 19:41:28 0° 183° (S) 2,846 6.6 -6.6°
